Weather in Naushki

Russia / Republic of Buryatia     50°23′16″N   106°06′10″E
temp.,
°C
wind,
m/s
gust,
m/s
humid.,
%
clouds,
%
prec.,
mm/h
press.,
hPa
HPBL,
m
26 january, tue
tue2623:00−20w2375100 0.0 103324
02:00−21w2377100 0.0 103320
05:00−23w2278100 0.0 103320
08:00−23w2277100 0.0 103420
11:00−21w2279100 0.0 103494
14:00−19wnw2275100 0.0 1032235
17:00−22nw1184100 0.0 103220
20:00−24nw1184100 0.0 103420
27 january, wed
wed2723:00−25wnw2284100 0.0 103520
02:00−24wnw2284100 0.0 103620
05:00−26w1279100 0.0 103719
08:00−29wnw2279100 0.0 103919
11:00−26w2279100 0.0 104090
14:00−21wnw387095 0.0 1038432
17:00−24w227512 0.0 103927
20:00−28wsw22717 0.0 104219
28 january, thu
thu2823:00−29sw12710 0.0 104120
02:00−31ssw12831 0.0 103821
05:00−32ssw11886 0.0 103620
08:00−31sw118646 0.0 103520
11:00−26sw1279100 0.0 1032172
14:00−22ssw2374100 0.0 1029333
17:00−23s2285100 0.0 102737
20:00−26s228673 0.0 102821
29 january, fri
fri2923:00−23s2287100 0.0 102525
02:00−24ssw228799 0.0 102220
05:00−22s0183100 0.0 102020
08:00−25ne0090100 0.0 102020
11:00−20nw1182100 0.0 102034
14:00−16ne007876 0.0 1019169
17:00−18ne118894 0.0 101820
20:00−18nne018897 0.0 101920
30 january, sat
sat3023:00−17nne1197100 0.1 101724
02:00−19wnw1198100 0.3 101821
05:00−21wsw229772 0.0 102120
08:00−21wsw128845 0.0 102320
11:00−16ssw228132 0.0 102290
14:00−12sse227766 0.0 1019235
17:00−15sse1187100 0.0 101724
20:00−18ssw1189100 0.0 101720